When you browse on this site, cookies collect data to enhance your experience and personalize the content and advertising you see.
Visit our Privacy Policy to learn more. By continuing to use the site, you agree to this use of cookies and data.
  • In Hungary
  • List of Countries
  • For 7 days
  • Water Temperature
  • Weather Map
  • News
  • Weather Widgets
  • user-avatar
    Login

    Hourly Weather Vsevolodovka

    Today, 17 February, Monday

    Time Temperature Precipitation Wind Pressure Humidity
    00:00 -4°C° 0 mm 6 mps 751 mmHg 96%
    01:00 -4°C° 0.1 mm 6 mps 751 mmHg 95%
    02:00 -4°C° 0.1 mm 6 mps 751 mmHg 95%
    03:00 -4°C° 0 mm 6 mps 750 mmHg 95%
    04:00 -4°C° 0 mm 7 mps 750 mmHg 94%
    05:00 -4°C° 0 mm 7 mps 749 mmHg 94%
    06:00 -5°C° 0 mm 8 mps 749 mmHg 93%
    07:00 -6°C° 0 mm 8 mps 749 mmHg 90%
    08:00 -7°C° 0 mm 8 mps 749 mmHg 88%
    09:00 -7°C° 0 mm 8 mps 749 mmHg 85%
    10:00 -6°C° 0 mm 8 mps 748 mmHg 83%
    11:00 -5°C° 0 mm 9 mps 748 mmHg 81%
    12:00 -5°C° 0 mm 10 mps 747 mmHg 79%
    13:00 -4°C° 0 mm 10 mps 747 mmHg 78%
    14:00 -4°C° 0 mm 10 mps 747 mmHg 78%
    15:00 -3°C° 0 mm 10 mps 747 mmHg 76%
    16:00 -4°C° 0 mm 10 mps 746 mmHg 79%
    17:00 -4°C° 0 mm 11 mps 746 mmHg 81%
    18:00 -4°C° 0 mm 11 mps 745 mmHg 83%
    19:00 -4°C° 0 mm 11 mps 745 mmHg 81%
    20:00 -4°C° 0 mm 11 mps 745 mmHg 79%
    21:00 -4°C° 0 mm 11 mps 745 mmHg 77%
    22:00 -4°C° 0 mm 11 mps 745 mmHg 77%
    23:00 -4°C° 0 mm 10 mps 744 mmHg 77%

    Tomorrow, 18 February, Tuesday

    Time Temperature Precipitation Wind Pressure Humidity
    00:00 -5°C° 0 mm 10 mps 744 mmHg 77%
    01:00 -5°C° 0 mm 9 mps 744 mmHg 79%
    02:00 -5°C° 0 mm 9 mps 744 mmHg 80%
    03:00 -5°C° 0 mm 9 mps 745 mmHg 82%
    04:00 -5°C° 0 mm 8 mps 744 mmHg 83%
    05:00 -5°C° 0 mm 8 mps 744 mmHg 85%
    06:00 -6°C° 0 mm 8 mps 743 mmHg 86%
    07:00 -6°C° 0.4 mm 8 mps 743 mmHg 88%
    08:00 -5°C° 0.4 mm 8 mps 744 mmHg 89%
    09:00 -5°C° 0.4 mm 8 mps 744 mmHg 91%
    10:00 -5°C° 0.4 mm 8 mps 743 mmHg 90%
    11:00 -5°C° 0.4 mm 8 mps 743 mmHg 90%
    12:00 -4°C° 0.4 mm 8 mps 743 mmHg 90%
    13:00 -4°C° 0.1 mm 8 mps 743 mmHg 91%
    14:00 -4°C° 0.1 mm 8 mps 743 mmHg 93%
    15:00 -3°C° 0.1 mm 7 mps 743 mmHg 94%
    16:00 -3°C° 0.2 mm 7 mps 742 mmHg 93%
    17:00 -3°C° 0.2 mm 7 mps 742 mmHg 93%
    18:00 -3°C° 0.2 mm 6 mps 741 mmHg 92%
    19:00 -4°C° 0 mm 6 mps 741 mmHg 92%
    20:00 -4°C° 0 mm 6 mps 741 mmHg 92%
    21:00 -4°C° 0 mm 7 mps 741 mmHg 93%
    22:00 -4°C° 0.1 mm 7 mps 740 mmHg 93%
    23:00 -4°C° 0.1 mm 7 mps 740 mmHg 94%

    Day after tomorrow, 19 February, Wednesday

    Time Temperature Precipitation Wind Pressure Humidity
    00:00 -4°C° 0.1 mm 7 mps 739 mmHg 94%
    01:00 -4°C° 0.2 mm 6 mps 739 mmHg 95%
    02:00 -4°C° 0.2 mm 6 mps 739 mmHg 95%
    03:00 -4°C° 0.2 mm 6 mps 738 mmHg 95%
    04:00 -3°C° 0.3 mm 6 mps 738 mmHg 96%
    05:00 -2°C° 0.3 mm 5 mps 738 mmHg 97%
    06:00 -2°C° 0.3 mm 5 mps 737 mmHg 98%
    07:00 -1°C° 0.1 mm 5 mps 737 mmHg 98%
    08:00 -1°C° 0.1 mm 4 mps 738 mmHg 99%
    09:00 -1°C° 0.1 mm 4 mps 738 mmHg 99%
    10:00 -1°C° 0 mm 4 mps 738 mmHg 99%
    11:00 -1°C° 0 mm 4 mps 738 mmHg 99%
    12:00 -1°C° 0 mm 4 mps 738 mmHg 99%
    13:00 -1°C° 0 mm 4 mps 738 mmHg 99%
    14:00 -1°C° 0 mm 4 mps 739 mmHg 99%
    15:00 0°C° 0 mm 3 mps 739 mmHg 99%
    16:00 0°C° 0 mm 3 mps 739 mmHg 99%
    17:00 -1°C° 0 mm 4 mps 739 mmHg 99%
    18:00 -1°C° 0 mm 4 mps 739 mmHg 98%
    19:00 -2°C° 0 mm 4 mps 740 mmHg 97%
    20:00 -1°C° 0 mm 3 mps 740 mmHg 96%
    21:00 -1°C° 0 mm 3 mps 740 mmHg 94%
    22:00 -1°C° 0 mm 3 mps 741 mmHg 94%
    23:00 -1°C° 0 mm 3 mps 741 mmHg 94%

    20 February, Thursday

    Time Temperature Precipitation Wind Pressure Humidity
    00:00 -2°C° 0 mm 3 mps 741 mmHg 94%
    01:00 -2°C° 0 mm 3 mps 741 mmHg 94%
    02:00 -2°C° 0 mm 3 mps 741 mmHg 95%
    03:00 -2°C° 0 mm 3 mps 742 mmHg 95%
    04:00 -2°C° 0 mm 3 mps 742 mmHg 94%
    05:00 -4°C° 0 mm 3 mps 742 mmHg 93%
    06:00 -3°C° 0 mm 2 mps 742 mmHg 93%
    07:00 -3°C° 0 mm 2 mps 742 mmHg 92%
    08:00 -2°C° 0 mm 2 mps 743 mmHg 92%
    09:00 -2°C° 0 mm 2 mps 743 mmHg 91%
    10:00 -2°C° 0 mm 2 mps 743 mmHg 92%
    11:00 -1°C° 0 mm 2 mps 743 mmHg 93%
    12:00 -1°C° 0 mm 2 mps 744 mmHg 94%
    13:00 -1°C° 0 mm 2 mps 744 mmHg 94%
    14:00 -1°C° 0 mm 2 mps 744 mmHg 93%
    15:00 +1°C° 0 mm 1 mps 744 mmHg 93%
    16:00 0°C° 0 mm 1 mps 744 mmHg 92%
    17:00 -1°C° 0 mm 1 mps 744 mmHg 91%
    18:00 -2°C° 0 mm 1 mps 744 mmHg 90%
    19:00 -2°C° 0 mm 1 mps 745 mmHg 89%
    20:00 -2°C° 0 mm 1 mps 745 mmHg 89%
    21:00 -3°C° 0 mm 1 mps 745 mmHg 88%
    22:00 -3°C° 0 mm 1 mps 745 mmHg 88%
    23:00 -4°C° 0 mm 0 mps 746 mmHg 87%

    21 February, Friday

    Time Temperature Precipitation Wind Pressure Humidity
    00:00 -4°C° 0 mm 0 mps 746 mmHg 87%
    01:00 -5°C° 0 mm 0 mps 746 mmHg 87%
    02:00 -5°C° 0 mm 0 mps 746 mmHg 86%
    03:00 -5°C° 0 mm 0 mps 746 mmHg 86%
    04:00 -6°C° 0 mm 0 mps 746 mmHg 86%
    05:00 -6°C° 0 mm 0 mps 746 mmHg 86%
    06:00 -6°C° 0 mm 0 mps 746 mmHg 86%
    07:00 -5°C° 0 mm 0 mps 747 mmHg 87%
    08:00 -5°C° 0 mm 0 mps 747 mmHg 87%
    09:00 -5°C° 0 mm 0 mps 747 mmHg 87%
    16:00 -3°C° 0 mm 0 mps 747 mmHg 89%
    17:00 -4°C° 0 mm 0 mps 747 mmHg 88%
    18:00 -5°C° 0 mm 0 mps 747 mmHg 88%
    19:00 -5°C° 0 mm 0 mps 747 mmHg 88%
    20:00 -5°C° 0 mm 0 mps 747 mmHg 88%
    21:00 -6°C° 0 mm 0 mps 747 mmHg 88%
    22:00 -6°C° 0 mm 1 mps 747 mmHg 89%
    23:00 -6°C° 0 mm 1 mps 747 mmHg 91%

    22 February, Saturday

    Time Temperature Precipitation Wind Pressure Humidity
    00:00 -6°C° 0 mm 1 mps 747 mmHg 92%
    01:00 -6°C° 0 mm 1 mps 747 mmHg 93%
    02:00 -6°C° 0 mm 1 mps 747 mmHg 94%
    03:00 -7°C° 0 mm 1 mps 747 mmHg 95%
    04:00 -7°C° 0 mm 1 mps 747 mmHg 95%
    05:00 -7°C° 0 mm 1 mps 747 mmHg 96%
    06:00 -7°C° 0 mm 1 mps 747 mmHg 96%
    07:00 -8°C° 0 mm 2 mps 747 mmHg 96%
    08:00 -7°C° 0 mm 2 mps 747 mmHg 96%
    09:00 -6°C° 0 mm 2 mps 747 mmHg 96%
    10:00 -6°C° 0 mm 2 mps 747 mmHg 95%
    11:00 -5°C° 0 mm 2 mps 747 mmHg 94%
    12:00 -5°C° 0 mm 2 mps 747 mmHg 92%
    13:00 -4°C° 0 mm 2 mps 747 mmHg 92%
    14:00 -4°C° 0 mm 2 mps 747 mmHg 91%
    15:00 -4°C° 0 mm 2 mps 746 mmHg 91%
    16:00 -4°C° 0 mm 2 mps 746 mmHg 92%
    17:00 -5°C° 0 mm 2 mps 746 mmHg 93%
    18:00 -5°C° 0 mm 2 mps 746 mmHg 94%
    19:00 -5°C° 0 mm 2 mps 746 mmHg 94%
    20:00 -5°C° 0 mm 2 mps 745 mmHg 94%
    21:00 -5°C° 0 mm 2 mps 745 mmHg 94%
    22:00 -6°C° 0 mm 3 mps 745 mmHg 94%
    23:00 -6°C° 0 mm 3 mps 744 mmHg 94%
    Show more